This is the latest recevied weather packets stored in our database for station/object EA3CO-11. If no packets are shown the sender has not sent any weather packets the latest 10 day(s).
| Time | Temp. | Humidity | Pressure | Rain* | Wind** | Luminosity | Snow |
|---|---|---|---|---|---|---|---|
| 1777716166 | 20° C | 51% | 1025.3 hPa | - | - | - | - |
| 1777715265 | 20° C | 57% | 1025.4 hPa | - | - | - | - |
| 1777714365 | 18.89° C | 64% | 1025.5 hPa | - | - | - | - |
| 1777713465 | 17.78° C | 70% | 1025.6 hPa | - | - | - | - |
| 1777712565 | 17.22° C | 71% | 1025.7 hPa | - | - | - | - |
| 1777711665 | 17.78° C | 71% | 1025.6 hPa | - | - | - | - |
| 1777710765 | 17.78° C | 71% | 1025.7 hPa | - | - | - | - |
| 1777709865 | 17.22° C | 73% | 1025.7 hPa | - | - | - | - |
| 1777708965 | 17.22° C | 75% | 1025.6 hPa | - | - | - | - |
| 1777708065 | 16.67° C | 75% | 1025.7 hPa | - | - | - | - |
| 1777707164 | 17.22° C | 74% | 1025.6 hPa | - | - | - | - |
| 1777706264 | 17.22° C | 73% | 1025.6 hPa | - | - | - | - |
| 1777703564 | 16.67° C | 76% | 1025.6 hPa | - | - | - | - |
| 1777702664 | 16.67° C | 77% | 1025.6 hPa | - | - | - | - |
| 1777701764 | 16.11° C | 79% | 1025.5 hPa | - | - | - | - |
| 1777700864 | 16.11° C | 81% | 1025.6 hPa | - | - | - | - |
| 1777699969 | 16.11° C | 82% | 1025.4 hPa | - | - | - | - |
| 1777699063 | 16.11° C | 82% | 1025.3 hPa | - | - | - | - |
| 1777698163 | 15.56° C | 83% | 1025.3 hPa | - | - | - | - |
| 1777697263 | 15.56° C | 84% | 1025.1 hPa | - | - | - | - |
| 1777696363 | 15.56° C | 84% | 1025.2 hPa | - | - | - | - |
| 1777695463 | 15.56° C | 85% | 1025.1 hPa | - | - | - | - |
| 1777694562 | 15.56° C | 87% | 1025.2 hPa | - | - | - | - |
| 1777693662 | 15.56° C | 87% | 1025.2 hPa | - | - | - | - |
| 1777692762 | 15.56° C | 88% | 1025.2 hPa | - | - | - | - |
* Rain since midnight (hover to see other rain measurements)
** Current wind speed in m/s (hover to see current wind gust speed)